This is the latest recevied weather packets stored in our database for station/object CE3MXM-13. If no packets are shown the sender has not sent any weather packets the latest 10 day(s).
| Time | Temp. | Humidity | Pressure | Rain* | Wind** | Luminosity | Snow |
|---|---|---|---|---|---|---|---|
| 1777927482 | 21.11° C | 35% | 1010.6 hPa | - | - | - | - |
| 1777927182 | 21.11° C | 35% | 1010.7 hPa | - | - | - | - |
| 1777926882 | 21.11° C | 35% | 1010.7 hPa | - | - | - | - |
| 1777926581 | 21.67° C | 34% | 1010.6 hPa | - | - | - | - |
| 1777926282 | 21.67° C | 35% | 1010.6 hPa | - | - | - | - |
| 1777925982 | 21.67° C | 34% | 1010.5 hPa | - | - | - | - |
| 1777925684 | 22.22° C | 35% | 1010.7 hPa | - | - | - | - |
| 1777925381 | 22.22° C | 36% | 1010.9 hPa | - | - | - | - |
| 1777925081 | 22.22° C | 35% | 1010.8 hPa | - | - | - | - |
| 1777924781 | 22.22° C | 35% | 1010.8 hPa | - | - | - | - |
| 1777924481 | 22.22° C | 34% | 1010.6 hPa | - | - | - | - |
| 1777924181 | 22.22° C | 35% | 1010.6 hPa | - | - | - | - |
| 1777923881 | 22.22° C | 33% | 1010.7 hPa | - | - | - | - |
| 1777923582 | 22.78° C | 33% | 1010.7 hPa | - | - | - | - |
| 1777923280 | 22.78° C | 34% | 1010.8 hPa | - | - | - | - |
| 1777922980 | 21.67° C | 38% | 1010.7 hPa | - | - | - | - |
| 1777922681 | 21.67° C | 40% | 1010.9 hPa | - | - | - | - |
| 1777922380 | 21.67° C | 38% | 1010.9 hPa | - | - | - | - |
| 1777922080 | 21.67° C | 39% | 1010.9 hPa | - | - | - | - |
| 1777921780 | 21.11° C | 41% | 1011 hPa | - | - | - | - |
| 1777921480 | 20.56° C | 40% | 1010.9 hPa | - | - | - | - |
| 1777921181 | 20.56° C | 42% | 1011 hPa | - | - | - | - |
| 1777920880 | 20.56° C | 41% | 1011.1 hPa | - | - | - | - |
| 1777920580 | 20.56° C | 41% | 1011 hPa | - | - | - | - |
| 1777920280 | 20.56° C | 40% | 1011 hPa | - | - | - | - |
* Rain since midnight (hover to see other rain measurements)
** Current wind speed in m/s (hover to see current wind gust speed)